Tracking 17938 objects as of 22-February-2017
HD Live streaming from Space Station
objects crossing your sky now

METEOSAT 3

Track METEOSAT 3 now!
METEOSAT 3 is classified as:


NORAD ID: 19215
Int'l Code: 1988-051A
Perigee: 36,718.4 km
Apogee: 36,786.6 km
Inclination: 16.1 °
Period: 1,485.4 minutes
Semi major axis: 43123 km
RCS: 4.1367 m2 (large)
Launch date: June 15, 1988
Source: European Space Agency (ESA)
Launch site: FRENCH GUIANA (FRGUI)
Your satellite tracking list
Your tracking list is empty





NASA's NSSDC Master Catalog

Two Line Element Set (TLE):
1 19215U 88051A   17052.51372205 -.00000074  00000-0  00000+0 0  9991
2 19215  16.0664   9.9423 0007912 281.8974 303.3001  0.96946539 90402
Source of the keplerian elements: AFSPC